When you browse on this site, cookies collect data to enhance your experience and personalize the content and advertising you see.
Visit our Privacy Policy to learn more. By continuing to use the site, you agree to this use of cookies and data.
  • In Romania
  • List of Countries
  • For 7 days
  • Water Temperature
  • Satellite Maps
  • Weather Map
  • Weather Widgets
  • user-avatar
    Login

    Hourly Weather Sankt Polten

    Today, 18 July, Thursday

    Time Temperature Precipitation Wind Pressure Humidity
    00:00 +16°C° 0.2 mm 1 mps 733 mmHg 92%
    01:00 +15°C° 0 mm 1 mps 733 mmHg 92%
    02:00 +15°C° 0.1 mm 1 mps 733 mmHg 92%
    03:00 +15°C° 0.1 mm 1 mps 733 mmHg 93%
    04:00 +14°C° 0.1 mm 1 mps 733 mmHg 93%
    05:00 +16°C° 0 mm 1 mps 733 mmHg 92%
    06:00 +16°C° 0 mm 0 mps 733 mmHg 90%
    07:00 +17°C° 0 mm 0 mps 734 mmHg 86%
    08:00 +21°C° 0.3 mm 1 mps 734 mmHg 79%
    09:00 +23°C° 0.3 mm 1 mps 734 mmHg 72%
    10:00 +24°C° 0.3 mm 1 mps 734 mmHg 65%
    11:00 +25°C° 0.2 mm 2 mps 734 mmHg 59%
    12:00 +26°C° 0.2 mm 2 mps 734 mmHg 52%
    13:00 +27°C° 0.2 mm 3 mps 734 mmHg 46%
    14:00 +27°C° 0 mm 3 mps 734 mmHg 45%
    15:00 +27°C° 0 mm 3 mps 734 mmHg 45%
    16:00 +27°C° 0 mm 3 mps 734 mmHg 45%
    17:00 +26°C° 0 mm 2 mps 734 mmHg 53%
    18:00 +24°C° 0 mm 2 mps 734 mmHg 62%
    19:00 +22°C° 0 mm 1 mps 734 mmHg 70%
    20:00 +21°C° 0 mm 1 mps 734 mmHg 71%
    21:00 +20°C° 0 mm 1 mps 734 mmHg 72%
    22:00 +19°C° 0 mm 1 mps 735 mmHg 73%
    23:00 +18°C° 0 mm 1 mps 735 mmHg 74%

    Tomorrow, 19 July, Friday

    Time Temperature Precipitation Wind Pressure Humidity
    00:00 +18°C° 0 mm 1 mps 735 mmHg 75%
    01:00 +16°C° 0 mm 1 mps 735 mmHg 76%
    02:00 +16°C° 0 mm 1 mps 735 mmHg 78%
    03:00 +16°C° 0 mm 1 mps 735 mmHg 79%
    04:00 +16°C° 0 mm 1 mps 735 mmHg 81%
    05:00 +18°C° 0 mm 1 mps 736 mmHg 78%
    06:00 +20°C° 0 mm 1 mps 736 mmHg 76%
    07:00 +21°C° 0 mm 1 mps 736 mmHg 74%
    08:00 +23°C° 0 mm 2 mps 736 mmHg 66%
    09:00 +25°C° 0 mm 2 mps 736 mmHg 59%
    10:00 +26°C° 0 mm 2 mps 736 mmHg 52%
    11:00 +27°C° 0 mm 2 mps 736 mmHg 49%
    12:00 +28°C° 0 mm 2 mps 736 mmHg 45%
    13:00 +29°C° 0 mm 2 mps 736 mmHg 42%
    14:00 +29°C° 0 mm 1 mps 736 mmHg 43%
    15:00 +29°C° 0 mm 1 mps 736 mmHg 44%
    16:00 +29°C° 0 mm 1 mps 736 mmHg 45%
    17:00 +27°C° 0 mm 1 mps 736 mmHg 52%
    18:00 +25°C° 0 mm 1 mps 736 mmHg 60%
    19:00 +22°C° 0 mm 0 mps 736 mmHg 68%
    20:00 +23°C° 0 mm 1 mps 736 mmHg 69%
    21:00 +21°C° 0 mm 1 mps 736 mmHg 71%
    22:00 +20°C° 0 mm 1 mps 737 mmHg 73%
    23:00 +20°C° 0 mm 1 mps 737 mmHg 75%

    Day after tomorrow, 20 July, Saturday

    Time Temperature Precipitation Wind Pressure Humidity
    00:00 +19°C° 0 mm 1 mps 737 mmHg 76%
    01:00 +19°C° 0 mm 1 mps 737 mmHg 78%
    02:00 +19°C° 0 mm 1 mps 737 mmHg 79%
    03:00 +18°C° 0 mm 1 mps 737 mmHg 80%
    04:00 +18°C° 0 mm 1 mps 737 mmHg 82%
    05:00 +20°C° 0 mm 1 mps 737 mmHg 77%
    06:00 +19°C° 0 mm 0 mps 737 mmHg 73%
    07:00 +21°C° 0 mm 0 mps 737 mmHg 69%
    08:00 +25°C° 0 mm 1 mps 737 mmHg 63%
    09:00 +27°C° 0 mm 1 mps 737 mmHg 57%
    10:00 +29°C° 0 mm 2 mps 738 mmHg 51%
    11:00 +29°C° 0 mm 2 mps 737 mmHg 50%
    12:00 +30°C° 0 mm 2 mps 737 mmHg 48%
    13:00 +31°C° 0 mm 2 mps 737 mmHg 46%
    14:00 +31°C° 0 mm 2 mps 737 mmHg 47%
    15:00 +31°C° 0 mm 2 mps 737 mmHg 47%
    16:00 +31°C° 0 mm 1 mps 736 mmHg 48%
    17:00 +30°C° 0.1 mm 1 mps 736 mmHg 56%
    18:00 +28°C° 0.1 mm 1 mps 737 mmHg 64%
    19:00 +24°C° 0.1 mm 0 mps 737 mmHg 73%
    20:00 +25°C° 0 mm 1 mps 737 mmHg 75%
    21:00 +24°C° 0 mm 1 mps 737 mmHg 77%
    22:00 +23°C° 0 mm 2 mps 738 mmHg 79%
    23:00 +21°C° 0 mm 2 mps 738 mmHg 79%

    21 July, Sunday

    Time Temperature Precipitation Wind Pressure Humidity
    00:00 +21°C° 0 mm 2 mps 738 mmHg 79%
    01:00 +20°C° 0 mm 2 mps 738 mmHg 79%
    02:00 +21°C° 0 mm 1 mps 738 mmHg 77%
    03:00 +21°C° 0 mm 1 mps 738 mmHg 75%
    04:00 +21°C° 0 mm 1 mps 738 mmHg 73%
    05:00 +22°C° 0 mm 1 mps 738 mmHg 71%
    06:00 +24°C° 0 mm 1 mps 738 mmHg 69%
    07:00 +25°C° 0 mm 1 mps 739 mmHg 66%
    08:00 +27°C° 0 mm 1 mps 739 mmHg 62%
    09:00 +28°C° 0 mm 2 mps 739 mmHg 58%
    10:00 +29°C° 0 mm 2 mps 740 mmHg 54%
    11:00 +29°C° 0 mm 3 mps 739 mmHg 54%
    12:00 +29°C° 0 mm 3 mps 739 mmHg 54%
    13:00 +30°C° 0 mm 3 mps 739 mmHg 54%
    14:00 +30°C° 0.1 mm 3 mps 739 mmHg 56%
    15:00 +30°C° 0.1 mm 3 mps 740 mmHg 58%
    16:00 +30°C° 0.1 mm 4 mps 740 mmHg 60%
    17:00 +28°C° 0.4 mm 3 mps 740 mmHg 68%
    18:00 +27°C° 0.4 mm 3 mps 740 mmHg 76%
    19:00 +25°C° 0.4 mm 2 mps 740 mmHg 84%
    20:00 +24°C° 0.2 mm 2 mps 741 mmHg 86%
    21:00 +23°C° 0.2 mm 2 mps 741 mmHg 88%
    22:00 +21°C° 0.2 mm 2 mps 741 mmHg 90%
    23:00 +20°C° 0 mm 2 mps 741 mmHg 90%

    22 July, Monday

    Time Temperature Precipitation Wind Pressure Humidity
    00:00 +20°C° 0 mm 2 mps 741 mmHg 90%
    01:00 +20°C° 0 mm 1 mps 741 mmHg 91%
    02:00 +20°C° 0 mm 1 mps 741 mmHg 91%
    03:00 +20°C° 0 mm 1 mps 741 mmHg 91%
    04:00 +19°C° 0 mm 1 mps 741 mmHg 91%
    05:00 +21°C° 0 mm 1 mps 742 mmHg 88%
    06:00 +22°C° 0 mm 1 mps 742 mmHg 85%
    07:00 +21°C° 0 mm 0 mps 742 mmHg 82%
    08:00 +25°C° 0.1 mm 1 mps 742 mmHg 74%
    09:00 +27°C° 0.1 mm 1 mps 743 mmHg 65%
    10:00 +29°C° 0.1 mm 1 mps 743 mmHg 57%
    11:00 +29°C° 0 mm 1 mps 742 mmHg 54%
    12:00 +30°C° 0 mm 1 mps 742 mmHg 52%
    13:00 +30°C° 0 mm 2 mps 742 mmHg 49%
    14:00 +30°C° 0 mm 2 mps 742 mmHg 50%
    15:00 +30°C° 0 mm 2 mps 742 mmHg 50%
    16:00 +30°C° 0 mm 1 mps 741 mmHg 50%
    17:00 +28°C° 0 mm 1 mps 741 mmHg 58%
    18:00 +27°C° 0 mm 1 mps 741 mmHg 65%
    19:00 +25°C° 0 mm 1 mps 741 mmHg 73%
    20:00 +24°C° 0 mm 1 mps 742 mmHg 76%
    21:00 +22°C° 0 mm 1 mps 742 mmHg 79%
    22:00 +21°C° 0 mm 1 mps 742 mmHg 81%
    23:00 +21°C° 0 mm 1 mps 742 mmHg 82%

    23 July, Tuesday

    Time Temperature Precipitation Wind Pressure Humidity
    00:00 +20°C° 0 mm 1 mps 742 mmHg 83%
    01:00 +20°C° 0 mm 1 mps 742 mmHg 84%
    02:00 +19°C° 0 mm 1 mps 741 mmHg 84%
    03:00 +19°C° 0 mm 1 mps 741 mmHg 84%
    04:00 +19°C° 0 mm 1 mps 741 mmHg 85%
    05:00 +20°C° 0 mm 1 mps 741 mmHg 80%
    06:00 +22°C° 0 mm 1 mps 741 mmHg 75%
    07:00 +23°C° 0 mm 1 mps 741 mmHg 70%
    08:00 +25°C° 0 mm 1 mps 741 mmHg 65%
    09:00 +26°C° 0 mm 1 mps 741 mmHg 59%
    10:00 +27°C° 0 mm 2 mps 741 mmHg 53%
    11:00 +28°C° 0 mm 2 mps 741 mmHg 50%
    12:00 +29°C° 0 mm 2 mps 741 mmHg 47%
    13:00 +29°C° 0 mm 3 mps 740 mmHg 44%
    14:00 +29°C° 0 mm 3 mps 740 mmHg 44%
    15:00 +29°C° 0 mm 2 mps 739 mmHg 45%
    16:00 +29°C° 0 mm 2 mps 739 mmHg 46%
    17:00 +27°C° 0 mm 2 mps 739 mmHg 54%
    18:00 +26°C° 0 mm 1 mps 739 mmHg 62%
    19:00 +24°C° 0 mm 1 mps 739 mmHg 70%
    20:00 +23°C° 0 mm 1 mps 739 mmHg 72%
    21:00 +22°C° 0 mm 1 mps 739 mmHg 74%
    22:00 +21°C° 0 mm 1 mps 739 mmHg 76%
    23:00 +20°C° 0 mm 1 mps 739 mmHg 77%
    Show more